Date String (YYYY-MM-DD hh:mm:ss) UTC,Instrument flags,Ambient pressure (hPa),Sample flow (lpm),Bypass flow (lpm),Sample temperature (°C),Ambient temperature (°C),ASC tube jacket temperature (°C),LED temperature (°C),Box temperature (°C),Sample RH (%),Span deviation,Mass concentration (μg/m³),Mass concentration (μg/m³),Mass concentration (μg/m³)
DateTimeUTC,F1_M11,P_M11,Q1_M11,Q2_M11,T1_M11,T2_M11,T3_M11,T4_M11,T5_M11,U1_M11,ZSPAN_M11,X0_M11,X2_M11,X1_M11
2022-07-20 12:00:00,,0829.9,5.00,0.00,29.8,28.8,00.0,38.6,31.8,22.6,0000.0,0017.95,0007.96,0006.43
2022-07-20 12:01:00,,0830.0,4.99,0.00,29.9,28.8,00.0,38.6,31.8,22.6,0000.0,0018.69,0007.91,0006.45
2022-07-20 12:02:00,,0830.0,5.00,0.00,29.9,28.9,00.0,38.6,31.9,22.8,0000.0,0018.61,0007.90,0006.45
2022-07-20 12:03:00,,0830.0,5.01,0.00,29.9,28.5,00.0,38.6,31.8,22.8,0000.0,0017.87,0007.86,0006.46
2022-07-20 12:04:00,,0830.0,5.01,0.00,29.9,27.7,00.0,38.5,31.7,22.8,0000.0,0017.78,0007.80,0006.47
2022-07-20 12:05:00,,0830.0,4.99,0.00,29.8,27.5,00.0,38.5,31.6,22.7,0000.0,0017.90,0007.78,0006.48
2022-07-20 12:06:00,,0830.1,4.99,0.00,29.8,27.5,00.0,38.5,31.5,22.7,0000.0,0017.85,0007.82,0006.49
2022-07-20 12:07:00,,0830.1,5.01,0.00,29.7,27.6,00.0,38.5,31.5,22.8,0000.0,0017.61,0007.79,0006.49
2022-07-20 12:08:00,,0830.1,5.00,0.00,29.7,27.7,00.0,38.5,31.5,22.7,0000.0,0017.21,0007.73,0006.49
2022-07-20 12:09:00,,0830.1,5.00,0.00,29.7,27.8,00.0,38.5,31.5,22.6,0000.0,0016.71,0007.73,0006.48
2022-07-20 12:10:00,,0830.1,4.99,0.00,29.7,27.9,00.0,38.5,31.5,22.5,0000.0,0016.39,0007.72,0006.48
2022-07-20 12:11:00,,0830.1,5.00,0.00,29.7,28.1,00.0,38.5,31.5,22.4,0000.0,0016.36,0007.76,0006.48
2022-07-20 12:12:00,,0830.1,5.01,0.00,29.7,28.2,00.0,38.5,31.6,22.3,0000.0,0015.73,0007.74,0006.47
2022-07-20 12:13:00,,0830.1,5.01,0.00,29.7,28.3,00.0,38.5,31.6,22.3,0000.0,0015.37,0007.77,0006.49
2022-07-20 12:14:00,,0830.1,5.00,0.00,29.7,28.4,00.0,38.5,31.6,22.1,0000.0,0015.68,0007.86,0006.51
2022-07-20 12:15:00,,0830.2,5.00,0.00,29.7,28.5,00.0,38.5,31.7,22.2,0000.0,0015.48,0007.88,0006.54
2022-07-20 12:16:00,,0830.3,5.00,0.00,29.8,28.5,00.0,38.5,31.7,22.2,0000.0,0015.21,0007.90,0006.55
2022-07-20 12:17:00,,0830.3,5.00,0.00,29.8,28.6,00.0,38.5,31.7,22.3,0000.0,0015.66,0007.90,0006.53
2022-07-20 12:18:00,,0830.5,5.02,0.00,29.8,28.7,00.0,38.6,31.8,22.7,0000.0,0016.16,0007.88,0006.50
2022-07-20 12:19:00,,0830.4,4.99,0.00,29.8,28.7,00.0,38.6,31.8,23.1,0000.0,0016.95,0007.96,0006.49
2022-07-20 12:20:00,,0830.4,5.01,0.00,29.9,28.8,00.0,38.6,31.8,23.4,0000.0,0017.49,0007.91,0006.47
2022-07-20 12:21:00,,0830.4,4.99,0.00,29.9,28.8,00.0,38.6,31.9,23.4,0000.0,0018.23,0007.86,0006.43
2022-07-20 12:22:00,,0830.5,5.00,0.00,29.9,28.9,00.0,38.6,31.9,23.0,0000.0,0019.21,0007.79,0006.39
2022-07-20 12:23:00,,0830.5,5.00,0.00,29.9,28.7,00.0,38.6,31.9,22.8,0000.0,0019.87,0007.80,0006.37
2022-07-20 12:24:00,,0830.4,5.01,0.00,29.9,27.9,00.0,38.5,31.8,23.3,0000.0,0019.20,0007.73,0006.33
2022-07-20 12:25:00,,0830.4,5.00,0.00,29.9,27.2,00.0,38.5,31.6,23.3,0000.0,0018.80,0007.60,0006.26
2022-07-20 12:26:00,,0830.4,5.02,0.00,29.8,27.0,00.0,38.5,31.5,23.7,0000.0,0018.63,0007.55,0006.20
2022-07-20 12:27:00,,0830.4,4.99,0.00,29.7,27.0,00.0,38.5,31.4,23.4,0000.0,0019.33,0007.49,0006.12
2022-07-20 12:28:00,,0830.5,4.99,0.00,29.6,27.2,00.0,38.4,31.3,23.0,0000.0,0019.08,0007.48,0006.08
2022-07-20 12:29:00,,0830.4,5.01,0.00,29.6,27.3,00.0,38.4,31.3,22.9,0000.0,0019.07,0007.52,0006.08
2022-07-20 12:30:00,,0830.4,5.00,0.00,29.6,27.5,00.0,38.4,31.3,22.2,0000.0,0018.70,0007.51,0006.09
2022-07-20 12:31:00,,0830.4,4.99,0.00,29.6,27.6,00.0,38.4,31.4,22.2,0000.0,0018.86,0007.54,0006.12
2022-07-20 12:32:00,,0830.4,5.00,0.00,29.5,27.8,00.0,38.4,31.4,21.9,0000.0,0018.52,0007.59,0006.15
2022-07-20 12:33:00,,0830.5,5.01,0.00,29.6,27.9,00.0,38.4,31.4,22.1,0000.0,0017.69,0007.63,0006.18
2022-07-20 12:34:00,,0830.5,4.99,0.00,29.6,28.0,00.0,38.4,31.4,22.3,0000.0,0016.65,0007.64,0006.20
2022-07-20 12:35:00,,0830.5,5.01,0.00,29.6,28.2,00.0,38.4,31.5,22.1,0000.0,0016.38,0007.65,0006.23
2022-07-20 12:36:00,,0830.6,4.99,0.00,29.6,28.2,00.0,38.4,31.5,22.4,0000.0,0017.19,0007.71,0006.25
2022-07-20 12:37:00,,0830.5,5.01,0.00,29.6,28.3,00.0,38.4,31.6,22.2,0000.0,0017.97,0007.78,0006.29
2022-07-20 12:38:00,,0830.5,4.99,0.00,29.6,28.4,00.0,38.4,31.6,21.9,0000.0,0018.34,0007.87,0006.36
2022-07-20 12:39:00,,0830.5,5.01,0.00,29.7,28.5,00.0,38.4,31.6,21.6,0000.0,0018.74,0007.97,0006.41
2022-07-20 12:40:00,,0830.6,5.00,0.00,29.7,28.5,00.0,38.4,31.6,21.4,0000.0,0019.08,0008.02,0006.43
2022-07-20 12:41:00,,0830.5,5.00,0.00,29.7,28.6,00.0,38.5,31.7,21.3,0000.0,0019.12,0007.98,0006.44
2022-07-20 12:42:00,,0830.5,5.01,0.00,29.7,28.6,00.0,38.5,31.7,21.3,0000.0,0018.67,0008.03,0006.45
2022-07-20 12:43:00,,0830.5,4.99,0.00,29.8,28.7,00.0,38.5,31.8,21.5,0000.0,0018.95,0008.08,0006.48
2022-07-20 12:44:00,,0830.5,5.00,0.00,29.8,28.7,00.0,38.5,31.8,21.5,0000.0,0019.33,0008.15,0006.50
2022-07-20 12:45:00,,0830.5,5.00,0.00,29.8,28.8,00.0,38.5,31.8,22.0,0000.0,0019.73,0008.31,0006.51
2022-07-20 12:46:00,,0830.5,5.01,0.00,29.9,28.8,00.0,38.6,31.8,21.9,0000.0,0019.94,0008.38,0006.52
2022-07-20 12:47:00,,0830.5,5.00,0.00,29.9,28.9,00.0,38.6,31.9,22.2,0000.0,0019.28,0008.44,0006.55
2022-07-20 12:48:00,,0830.5,5.01,0.00,29.9,28.9,00.0,38.6,31.9,22.7,0000.0,0019.17,0008.52,0006.56
2022-07-20 12:49:00,,0830.5,4.99,0.00,29.9,28.9,00.0,38.6,31.9,23.4,0000.0,0022.55,0008.93,0006.56
2022-07-20 12:50:00,,0830.5,5.00,0.00,30.0,28.5,00.0,38.6,31.9,23.0,0000.0,0026.57,0009.17,0006.55
2022-07-20 12:51:00,,0830.5,4.99,0.00,29.9,27.6,00.0,38.5,31.8,22.6,0000.0,0029.08,0009.31,0006.55
2022-07-20 12:52:00,,0830.5,5.01,0.00,29.9,27.1,00.0,38.5,31.6,22.3,0000.0,0031.46,0009.61,0006.55
2022-07-20 12:53:00,,0830.5,4.99,0.00,29.8,27.1,00.0,38.5,31.5,22.2,0000.0,0033.57,0009.77,0006.55
2022-07-20 12:54:00,,0830.5,4.99,0.00,29.7,27.2,00.0,38.5,31.4,22.3,0000.0,0036.00,0009.80,0006.51
2022-07-20 12:55:00,,0830.5,5.01,0.00,29.7,27.3,00.0,38.5,31.4,22.2,0000.0,0037.18,0009.86,0006.48
2022-07-20 12:56:00,,0830.5,4.99,0.00,29.6,27.5,00.0,38.5,31.4,22.0,0000.0,0038.46,0009.80,0006.46
2022-07-20 12:57:00,,0830.5,5.00,0.00,29.6,27.7,00.0,38.5,31.4,22.2,0000.0,0039.71,0009.76,0006.45
2022-07-20 12:58:00,,0830.5,5.01,0.00,29.6,27.8,00.0,38.4,31.4,22.1,0000.0,0040.50,0009.77,0006.43
2022-07-20 12:59:00,,0830.5,5.00,0.00,29.6,28.0,00.0,38.4,31.5,22.0,0000.0,0041.02,0009.77,0006.41
